This is the latest recevied weather packets stored in our database for station/object KD8LPB. If no packets are shown the sender has not sent any weather packets the latest 10 day(s).
| Time | Temp. | Humidity | Pressure | Rain* | Wind** | Luminosity | Snow |
|---|---|---|---|---|---|---|---|
| 1778024745 | 2.78° C | 83% | 1008.1 hPa | 0 mm | - | - | - |
| 1778017537 | 3.33° C | 81% | 1007.7 hPa | 0 mm | - | - | - |
| 1778015742 | 3.33° C | 80% | 1007.6 hPa | 0 mm | - | - | - |
| 1778006737 | 3.89° C | 76% | 1005.8 hPa | 0 mm | - | - | - |
| 1778005840 | 3.89° C | 79% | 1005.5 hPa | 0 mm | - | - | - |
| 1778002235 | 3.89° C | 80% | 1004.8 hPa | 0 mm | - | - | - |
| 1778001340 | 3.89° C | 80% | 1004.9 hPa | 0 mm | - | - | - |
| 1778000439 | 5° C | 74% | 1004.9 hPa | 0 mm | - | - | - |
| 1777998636 | 6.11° C | 71% | 1004.7 hPa | 0 mm | - | - | - |
| 1777995950 | 5° C | 72% | 1004.4 hPa | 0 mm | - | - | - |
| 1777992347 | 5° C | 78% | 1003.7 hPa | 0 mm | - | - | - |
| 1777989638 | 3.89° C | 78% | 1002.9 hPa | 0 mm | - | - | - |
| 1777988737 | 3.89° C | 81% | 1002.7 hPa | 0 mm | - | - | - |
| 1777986935 | 3.33° C | 83% | 1002.3 hPa | 0 mm | - | - | - |
| 1777979740 | 2.22° C | 81% | 1001.1 hPa | 0 mm | - | - | - |
| 1777974341 | 2.22° C | 89% | 999.5 hPa | 0 mm | - | - | - |
| 1777969846 | 2.78° C | 90% | 999.1 hPa | 0 mm | - | - | - |
| 1777964438 | 2.78° C | 90% | 998.6 hPa | 0 mm | - | - | - |
| 1777961735 | 3.33° C | 89% | 998.6 hPa | 0 mm | - | - | - |
| 1777960839 | 3.89° C | 89% | 998.4 hPa | 0 mm | - | - | - |
| 1777959041 | 4.44° C | 87% | 998 hPa | 0 mm | - | - | - |
| 1777954547 | 5° C | 84% | 996.9 hPa | 0 mm | - | - | - |
| 1777951838 | 5° C | 86% | 996.4 hPa | 0 mm | - | - | - |
| 1777936538 | 7.78° C | 83% | 994.7 hPa | 0 mm | - | - | - |
| 1777932940 | 7.78° C | 86% | 994.2 hPa | 0 mm | - | - | - |
* Rain latest hour (hover to see other rain measurements)
** Current wind speed in m/s (hover to see current wind gust speed)